Flag for Brazil Weather past 2 weeks in Cuiabá, Mato Grosso, Brazil

Now
79 °F

Passing clouds.


Feels Like: 81 °F
Forecast: 69 / 93 °F
Wind: 9 mph from Southwest

Location: Cuiaba Aeroporto

Current Time: Sep 15, 2014 at 9:59:02 PM

Latest Report: Sep 15, 2014 at 9:00 PM


Visibility: N/A

Pressure: 30.01 "Hg

Humidity: 74%

Dew point: 70 °F

Location of CuiabáLocation

Historic Weather in Cuiabá — Graph

°F

Cuiabá temperature yesterday

Maximum temperature yesterday: 104 °F (at 3:00 PM)
Minimum temperature yesterday: 75 °F (at 5:00 AM)
Average temperature yesterday: 89 °F

Past Weeks' High & Low Weather Summary

 TemperatureHumidityPressure
High104 °F (Sep 14, 3:00 PM)94% (Sep 5, 1:00 AM)30.04 "Hg (Sep 5, 1:00 AM)
Low70 °F (Sep 5, 4:00 AM)17% (Sep 9, 1:00 PM)29.74 "Hg (Sep 1, 4:00 PM)
Average86 °F53%29.88 "Hg
* Reported Aug 31 9:00 PM — Sep 15 9:00 PM, Cuiabá, Weather by CustomWeather, © 2014

Note: Actual official high and low records may vary slightly from our data, if they occured in-between our weather recording intervals... More about our weather records

Advertising

Cuiabá weather history for previous 24 hours

 ConditionsComfort  
Time TempWeatherWind HumidityBarometerVisibility
9:00 PM
Sep 15
79 °FPassing clouds.9 mph74%30.01 "HgN/A
8:00 PM81 °FPassing clouds.10 mph70%29.98 "HgN/A
7:00 PM82 °FPassing clouds.9 mph66%29.98 "HgN/A
6:00 PM84 °FPassing clouds.10 mph62%29.95 "HgN/A
5:00 PM86 °FScattered clouds.20 mph62%29.92 "HgN/A
4:00 PM90 °FSunny.13 mph52%29.89 "Hg10 mi
3:00 PM93 °FSunny.15 mph44%29.89 "Hg10 mi
2:00 PM95 °FSunny.10 mph39%29.92 "Hg10 mi
1:00 PM93 °FSunny.10 mph44%29.92 "Hg10 mi
12:00 PM93 °FPassing clouds.14 mph44%29.98 "HgN/A
11:00 AM90 °FSunny.12 mph55%30.01 "Hg10 mi
10:00 AM84 °FSunny.14 mph66%30.01 "Hg10 mi
9:00 AM86 °FPartly sunny.20 mph59%30.01 "Hg4 mi
8:00 AM88 °FHaze.No wind62%29.95 "Hg3 mi
7:00 AM84 °FHaze.2 mph66%29.95 "Hg3 mi
6:00 AM77 °FFog.2 mph83%29.92 "Hg3 mi
5:00 AM81 °FClear.3 mph74%29.92 "Hg10 mi
4:00 AM82 °FClear.No wind66%29.89 "Hg10 mi
3:00 AM82 °FClear.2 mph66%29.89 "Hg10 mi
2:00 AM82 °FClear.No wind66%29.89 "Hg10 mi
1:00 AM84 °FClear.3 mph62%29.89 "Hg10 mi
12:00 AM82 °FClear.2 mph66%29.89 "Hg10 mi
11:00 PM
Sep 14
82 °FClear.2 mph70%29.89 "Hg10 mi
10:00 PM84 °FClear.3 mph62%29.89 "Hg10 mi
9:00 PM90 °FClear.9 mph52%29.89 "Hg10 mi
Weather by CustomWeather, © 2014

See weather overviewHow to use our weather pages